[[{"header":{"parameterUnit":"m.s-1","parameterCategory":1,"la1":30.2991,"la2":30.254,"lo1":-89.0895,"lo2":-89.0444,"dy":0.0017,"dx":0.0017,"nx":28,"ny":28,"refTime":"2024-12-08T03:00:00:Z","depth":0,"parameterNumber":2,"parameterNumberName":"U-component_of_WINDS"},"data":[0,0,0,0,0,0,0,0,0,0,0,0,0,0,0,0,0,0,0,0,0,0,0,0,0,0,0,0,0,0,0,0,0,0,0,0,0,0,0,0,0,0,0,0,0,0,0,0,0,0,0,0,0,0,0,0,0,0,-0.9901,-0.9901,0,-0.989,-0.989,-0.989,-0.9825,-0.9823,-0.9822,-0.982,-0.9811,-0.9812,-0.9813,0,0,0,0,0,0,0,0,0,0,0,0,0,-0.9869,-0.9869,-0.9901,-0.9901,-0.9901,-0.989,-0.989,-0.989,-0.9825,-0.9823,-0.9821,-0.982,-0.981,-0.9812,-0.9813,0,0,0,0,0,0,0,0,0,0,0,0,0,-0.9873,-0.987,-0.9901,-0.9867,-0.9864,-0.989,-0.989,-0.989,-0.9826,-0.9823,-0.9821,-0.9819,-0.981,-0.9812,-0.9814,-0.9872,0,0,-0.9819,-0.982,0,0,0,0,0,0,0,0,-0.9873,-0.9874,-0.9873,-0.987,-0.9866,-0.9856,-0.9875,-0.9884,-0.9826,-0.984,-0.982,-0.9817,-0.9828,-0.9828,-0.9831,-0.9872,-0.9871,-0.9819,-0.982,-0.9821,-0.9822,0,0,0,0,0,0,0,-0.9872,-0.9874,-0.9897,-0.9873,-0.9869,-0.9853,-0.9851,-0.9876,-0.9848,-0.9839,-0.9834,-0.9834,-0.9826,-0.983,-0.9831,-0.9871,-0.9819,-0.9821,-0.9822,-0.9823,-0.9959,-0.9962,0,0,0,0,0,0,-0.9877,-0.9874,-0.9897,-0.9897,-0.9864,-0.9856,-0.9854,-0.9862,-0.9847,-0.9843,-0.9836,-0.9831,-0.9828,-0.9829,-0.983,-0.9898,-0.9821,-0.9823,-0.9824,-0.9957,-0.996,-0.9963,0,0,0,0,0,0,-0.9876,-0.9879,-0.9898,-0.9884,-0.9885,-0.9859,-0.9869,-0.9863,-0.9867,-0.9845,-0.9839,-0.9845,-0.9826,-0.9828,-0.9862,-0.9897,-0.9824,-0.9825,-0.9954,-0.9958,-0.9961,-1.0035,0,0,0,0,0,0,-0.9875,-0.9879,-0.9901,-0.9885,-0.9886,-0.993,-0.9871,-0.9865,-0.987,-0.9863,-0.9852,-0.9848,-0.9824,-0.986,-0.9864,-0.9898,-0.9827,-0.9951,-0.9956,-0.996,-1.0029,-1.0041,-1.0051,0,0,0,0,0,-0.9875,-0.9923,-0.9902,-0.9906,-0.9913,-0.9932,-0.9933,-0.9904,-0.9873,-0.9895,-0.9881,-0.9848,-0.9892,-0.9864,-0.9868,-0.9903,-0.9948,-0.9954,-0.996,-1.0025,-1.0039,-1.0051,0,0,0,0,0,0,-0.9944,-0.992,-0.9897,-0.9941,-0.9939,-0.9921,-0.9947,-0.992,-0.9927,-0.992,-0.9885,-0.9883,-0.9923,-0.9916,-0.9885,-0.996,-0.9915,-0.9922,-0.9963,-0.9976,-0.9986,-0.9988,-0.9828,0,0,0,0,0,-0.9964,-0.9981,-0.9959,-1.0001,-1.0,-0.9974,-0.9982,-0.996,-0.9956,-0.9955,-0.9943,-0.9942,-0.9955,-0.9965,-0.9976,-1.0028,-1.0025,-1.0054,-1.0065,-1.0074,-1.0081,-1.0108,-1.0121,-0.9981,-0.9981,-0.9981,0,0,-1.0007,-0.9996,-1.0009,-1.0014,-1.001,-1.0029,-0.9974,-0.9996,-1.0011,-0.9959,-0.9991,-0.9982,-0.9978,-1.0022,-1.004,-1.0017,-1.0118,-1.0081,-1.0088,-1.009,-1.0116,-1.0129,-1.0141,-0.9985,-0.9985,-0.9984,0,0,-1.0094,-1.0087,-1.0121,-1.0117,-1.0111,-1.0093,-1.0102,-1.0087,-1.008,-1.0111,-1.0073,-1.0089,-1.0113,-1.0112,-1.0114,-1.0201,-1.0172,-1.0206,-1.0262,-1.029,-1.0301,-1.031,-1.0343,-1.0355,-1.0212,-1.0212,-1.0213,0,-1.0148,-1.0175,-1.0142,-1.0167,-1.0171,-1.0124,-1.0159,-1.0157,-1.0155,-1.016,-1.0133,-1.0163,-1.0156,-1.02,-1.0221,-1.0224,-1.0233,-1.0208,-1.0302,-1.0311,-1.032,-1.035,-1.0362,-1.0217,-1.0216,-1.0216,-1.0215,0,-1.0242,-1.0261,-1.0289,-1.0288,-1.0295,-1.0325,-1.0297,-1.0308,-1.0286,-1.0271,-1.0304,-1.0295,-1.0304,-1.0312,-1.029,-1.0353,-1.0339,-1.0308,-1.0262,-1.0338,-1.0366,-1.0377,-1.0223,-1.0221,-1.022,-1.0219,0,0,-1.0374,-1.0354,-1.0365,-1.0364,-1.0353,-1.0368,-1.0396,-1.0404,-1.0415,-1.0415,-1.0438,-1.0459,-1.0431,-1.0434,-1.0411,-1.0435,-1.0506,-1.0401,-1.0401,-1.0422,-1.0576,-1.06,-1.0614,-1.0486,-1.0488,-1.049,-1.0576,0,-1.0458,-1.0504,-1.0476,-1.0527,-1.0544,-1.05,-1.0524,-1.0521,-1.0508,-1.0522,-1.0507,-1.0523,-1.0483,-1.0485,-1.0507,-1.0493,-1.0537,-1.0486,-1.0509,-1.051,-1.0513,-1.0628,-1.0654,-1.0737,-1.0587,-1.0589,-1.059,0,-1.0564,-1.0568,-1.0621,-1.0607,-1.0614,-1.0636,-1.0641,-1.0655,-1.065,-1.0639,-1.0643,-1.0614,-1.0641,-1.0596,-1.0633,-1.0599,-1.0607,-1.0601,-1.0604,-1.0606,-1.0556,-1.0635,-1.0762,-1.0775,-1.0607,-1.0606,-1.0604,0,-1.0656,-1.0675,-1.0709,-1.071,-1.0695,-1.0712,-1.0706,-1.0699,-1.0706,-1.0711,-1.0715,-1.0723,-1.0728,-1.0735,-1.071,-1.0679,-1.0752,-1.0703,-1.0745,-1.0745,-1.0763,-1.0763,-1.0894,-1.0766,-1.0765,-1.0765,-1.0765,0,-1.0755,-1.0789,-1.0751,-1.0772,-1.081,-1.0776,-1.0814,-1.0804,-1.0798,-1.0817,-1.0779,-1.0798,-1.0763,-1.0779,-1.0759,-1.0794,-1.0796,-1.0789,-1.0783,-1.0793,-1.0794,-1.0799,-1.0793,-1.0768,-1.0768,-1.0767,-1.0766,0,-1.0866,-1.0841,-1.0875,-1.0858,-1.0854,-1.0883,-1.0868,-1.0888,-1.0871,-1.0896,-1.09,-1.0875,-1.0892,-1.0867,-1.0881,-1.0867,-1.0916,-1.0901,-1.0918,-1.0914,-1.0957,-1.0954,-1.1097,-1.1115,-1.0974,-1.0975,-1.0976,0,-1.0931,-1.0956,-1.0941,-1.0951,-1.0948,-1.0964,-1.097,-1.0938,-1.0947,-1.0944,-1.0964,-1.0977,-1.0986,-1.1014,-1.0998,-1.1008,-1.0995,-1.1044,-1.0996,-1.1005,-1.0997,-1.0997,-1.1,-1.1055,-1.1056,-1.1058,-1.1059,0,-1.105,-1.1037,-1.1047,-1.1054,-1.1063,-1.1067,-1.1068,-1.1078,-1.1045,-1.1057,-1.1072,-1.1079,-1.1093,-1.1107,-1.1113,-1.1108,-1.1079,-1.1074,-1.1084,-1.1095,-1.1104,-1.1102,-1.0946,-1.1071,-1.107,-1.1069,-1.1068,-1.1068,-1.1141,-1.1162,-1.1155,-1.1168,-1.1165,-1.1167,-1.1185,-1.1171,-1.1183,-1.1192,-1.1172,-1.1193,-1.1188,-1.1194,-1.1192,-1.1208,-1.1187,-1.1202,-1.1206,-1.121,-1.1218,-1.11,-1.1209,-1.1209,-1.1209,-1.1208,-1.1208,0,-1.1259,-1.1252,-1.1265,-1.1268,-1.1279,-1.1248,-1.1248,-1.1259,-1.1278,-1.1276,-1.1285,-1.1304,-1.1317,-1.1302,-1.1312,-1.1329,-1.1316,-1.1333,-1.1332,-1.1332,-1.1235,-1.1226,-1.1343,-1.1343,-1.1343,-1.1343,-1.1343,-1.1343,-1.1323,-1.1356,-1.1342,-1.1375,-1.1367,-1.1387,-1.139,-1.1392,-1.139,-1.1412,-1.1423,-1.1412,-1.1405,-1.1415,-1.1426,-1.1421,-1.1428,-1.145,-1.1441,-1.1352,-1.1338,-1.1326,-1.1317,-1.1452,-1.1452,-1.1536,-1.1537,-1.1538]},{"header":{"parameterUnit":"m.s-1","parameterCategory":1,"la1":30.2991,"la2":30.254,"lo1":-89.0895,"lo2":-89.0444,"dy":0.0017,"dx":0.0017,"nx":28,"ny":28,"refTime":"2024-12-08T03:00:00:Z","depth":0,"parameterNumber":3,"parameterNumberName":"V-component_of_WINDS"},"data":[0,0,0,0,0,0,0,0,0,0,0,0,0,0,0,0,0,0,0,0,0,0,0,0,0,0,0,0,0,0,0,0,0,0,0,0,0,0,0,0,0,0,0,0,0,0,0,0,0,0,0,0,0,0,0,0,0,0,0.3099,0.3099,0,0.3113,0.3113,0.3113,0.3169,0.3171,0.3172,0.3173,0.3185,0.3184,0.3183,0,0,0,0,0,0,0,0,0,0,0,0,0,0.3118,0.3118,0.3099,0.3099,0.31,0.3113,0.3113,0.3113,0.3169,0.3171,0.3172,0.3174,0.3185,0.3184,0.3183,0,0,0,0,0,0,0,0,0,0,0,0,0,0.3119,0.3117,0.3099,0.3129,0.3132,0.3113,0.3113,0.3114,0.3169,0.3171,0.3173,0.3175,0.3186,0.3185,0.3183,0.3136,0,0,0.3179,0.3179,0,0,0,0,0,0,0,0,0.3119,0.3118,0.3125,0.3127,0.313,0.3142,0.3124,0.3121,0.3168,0.3155,0.3173,0.3176,0.3169,0.3169,0.3167,0.3137,0.3137,0.3179,0.3178,0.3178,0.3177,0,0,0,0,0,0,0,0.3119,0.3118,0.3105,0.3125,0.3128,0.3141,0.3143,0.3124,0.3151,0.3156,0.316,0.3161,0.3171,0.3169,0.3168,0.3137,0.3179,0.3178,0.3177,0.3177,0.3066,0.3064,0,0,0,0,0,0,0.3115,0.3117,0.3104,0.3105,0.3129,0.3139,0.3141,0.3136,0.3151,0.3155,0.316,0.3164,0.317,0.317,0.3169,0.3113,0.3178,0.3176,0.3176,0.3068,0.3066,0.3063,0,0,0,0,0,0,0.3115,0.3113,0.3104,0.3112,0.3112,0.3137,0.313,0.3135,0.3133,0.3154,0.3158,0.3152,0.3171,0.3171,0.3143,0.3114,0.3176,0.3175,0.3071,0.3067,0.3065,0.3001,0,0,0,0,0,0,0.3115,0.3113,0.3096,0.3112,0.3111,0.3079,0.3128,0.3134,0.3131,0.3136,0.3148,0.3152,0.3173,0.3145,0.3142,0.3113,0.3174,0.3073,0.3069,0.3066,0.3006,0.2996,0.2988,0,0,0,0,0,0.3116,0.3077,0.3095,0.3093,0.3091,0.3077,0.3077,0.3102,0.3128,0.3111,0.3124,0.3152,0.3118,0.3142,0.3139,0.3109,0.3075,0.307,0.3066,0.301,0.2998,0.2988,0,0,0,0,0,0,0.3057,0.308,0.3099,0.3065,0.3069,0.3087,0.3065,0.3089,0.3085,0.309,0.3121,0.3123,0.3091,0.3098,0.3124,0.3063,0.3101,0.3096,0.306,0.3049,0.304,0.3038,0.3172,0,0,0,0,0,0.304,0.3028,0.3048,0.3016,0.3017,0.3041,0.3036,0.3055,0.3059,0.3061,0.3072,0.3075,0.3065,0.3058,0.305,0.3008,0.301,0.2986,0.2977,0.2969,0.2964,0.294,0.2929,0.3048,0.3048,0.3048,0,0,0.3005,0.3016,0.3006,0.3005,0.301,0.2995,0.3042,0.3025,0.3013,0.3058,0.3033,0.3041,0.3046,0.3011,0.2996,0.3015,0.2931,0.2963,0.2957,0.2955,0.2934,0.2922,0.2912,0.3044,0.3045,0.3045,0,0,0.2933,0.2941,0.2915,0.2919,0.2926,0.2941,0.2935,0.2949,0.2956,0.2931,0.2964,0.2951,0.2934,0.2935,0.2934,0.2861,0.2886,0.2858,0.281,0.2786,0.2777,0.2769,0.2741,0.2731,0.2852,0.2852,0.2852,0,0.2889,0.2869,0.2898,0.2878,0.2875,0.2916,0.2888,0.289,0.2894,0.2891,0.2913,0.289,0.2897,0.2861,0.2844,0.2842,0.2834,0.2856,0.2776,0.2768,0.2761,0.2735,0.2724,0.2848,0.2849,0.2849,0.285,0,0.2812,0.2798,0.2775,0.2778,0.2773,0.2749,0.2773,0.2765,0.2784,0.2797,0.277,0.2779,0.2773,0.2766,0.2785,0.2733,0.2745,0.2771,0.2809,0.2746,0.2721,0.2712,0.2843,0.2845,0.2846,0.2847,0,0,0.2704,0.2722,0.2713,0.2714,0.2725,0.2713,0.2691,0.2685,0.2676,0.2677,0.2658,0.2642,0.2666,0.2664,0.2683,0.2663,0.2602,0.2692,0.2692,0.2673,0.2543,0.2521,0.2509,0.2619,0.2618,0.2616,0.2542,0,0.2634,0.2597,0.2622,0.2581,0.2566,0.2604,0.2584,0.2588,0.2599,0.2588,0.26,0.2587,0.2621,0.262,0.2602,0.2613,0.2576,0.2619,0.26,0.2599,0.2595,0.2497,0.2475,0.2404,0.2533,0.2531,0.253,0,0.2548,0.2545,0.2502,0.2513,0.2508,0.249,0.2486,0.2476,0.2479,0.2489,0.2486,0.251,0.2488,0.2526,0.2494,0.2523,0.2517,0.2521,0.2519,0.2517,0.2559,0.249,0.2383,0.2371,0.2516,0.2517,0.2518,0,0.247,0.2456,0.2428,0.2428,0.2441,0.2427,0.2432,0.2438,0.2432,0.2428,0.2425,0.2418,0.2414,0.2408,0.2428,0.2455,0.2393,0.2434,0.2398,0.2397,0.2382,0.2383,0.227,0.2381,0.2381,0.2381,0.2382,0,0.2389,0.236,0.2393,0.2375,0.2344,0.2373,0.2341,0.235,0.2354,0.2338,0.2371,0.2355,0.2384,0.2371,0.2387,0.2356,0.2355,0.2361,0.2365,0.2357,0.2356,0.2352,0.2356,0.2379,0.2379,0.238,0.238,0,0.2297,0.2318,0.2289,0.2304,0.2307,0.2283,0.2295,0.2279,0.2293,0.2272,0.2268,0.2289,0.2274,0.2295,0.2283,0.2294,0.2251,0.2264,0.225,0.2253,0.2215,0.2218,0.2095,0.2079,0.2202,0.22,0.2199,0,0.2242,0.2221,0.2234,0.2226,0.2228,0.2215,0.2209,0.2236,0.2229,0.2231,0.2214,0.2202,0.2194,0.2169,0.2182,0.2172,0.2184,0.2141,0.2182,0.2174,0.2181,0.2181,0.2178,0.2132,0.2131,0.213,0.2129,0,0.2143,0.2154,0.2145,0.2139,0.2131,0.2128,0.2127,0.2118,0.2146,0.2135,0.2121,0.2115,0.2102,0.2089,0.2083,0.2087,0.2111,0.2116,0.2107,0.2097,0.2089,0.209,0.2225,0.2118,0.2119,0.212,0.2121,0.2121,0.2067,0.2049,0.2055,0.2043,0.2045,0.2043,0.2028,0.2039,0.2028,0.202,0.2036,0.2017,0.202,0.2014,0.2015,0.2,0.2018,0.2005,0.2002,0.1998,0.1991,0.2093,0.1999,0.1999,0.2,0.2,0.2,0,0.1967,0.1973,0.1962,0.1959,0.1949,0.1975,0.1974,0.1964,0.1947,0.1948,0.1939,0.1922,0.1909,0.1921,0.1911,0.1896,0.1907,0.1892,0.1892,0.1892,0.1976,0.1984,0.1883,0.1883,0.1883,0.1883,0.1883,0.1883,0.1914,0.1885,0.1897,0.1868,0.1874,0.1856,0.1853,0.1851,0.1851,0.1831,0.182,0.1829,0.1833,0.1823,0.1812,0.1816,0.181,0.179,0.1798,0.1875,0.1887,0.1898,0.1905,0.1789,0.1789,0.1715,0.1714,0.1714]}]]